Regional Weather Roundup
Issued by NWS Sterling, VA

Home | Current Version | Previous Version | Graphics & Text | Print | Product List | Glossary On
Versions: 1 2 3 4 5 6 7 8 9 10 11 12 13 14 15 16 17 18 19 20 21 22 23 24 25 26 27
000
ASUS41 KLWX 251611
RWRLWX

REGIONAL WEATHER ROUNDUP
NATIONAL WEATHER SERVICE BALTIMORE MD/WASHINGTON DC
1200 PM EDT TUE APR 25 2017

Note: "FAIR" indicates few or no clouds below 12,000 feet
with no significant weather and/or obstructions to visibility.
 TC=TEMPERATURE CELSIUS

 * =Non NWS site. Station does not report precipitation (e.g. rain,
    snow, etc.), thunder, or fog.

DCZ001-MDZ009-015-VAZ040>042-051-053>054-251700-
WASHINGTON METRO

CITY           SKY/WX    TMP DP  RH WIND       PRES   REMARKS
WASHINGTON NAT LGT RAIN  59  57  93 NE20G29   29.81F FOG
DULLES         LGT RAIN  58  55  90 NE15      29.82F FOG
ANDREWS AFB    LGT RAIN  56  55  95 NE22G29   29.78F FOG
FT BELVOIR     LGT RAIN  57  55  94 NE10G18   29.78F
QUANTICO       CLOUDY    59  57  93 NE25G37   29.78F
COLLEGE PARK*  CLOUDY    56  54  92 NE7G21    29.82F
LEESBURG*      DRIZZLE   57  57 100 NE8       29.85F
MANASSAS*      LGT RAIN  58  56  93 NE15      29.80F FOG

$$

MDZ006>007-011-014-251700-
BALTIMORE METRO

CITY           SKY/WX    TMP DP  RH WIND       PRES   REMARKS
BWI AIRPORT    LGT RAIN  57  56  96 NE21G28   29.84F FOG
MD SCIENCE CTR   N/A     59  53  80 MISG      29.86F
MARTIN STATE   LGT RAIN  59  57  94 N13       29.89F
ANNAPOLIS      LGT RAIN  58  56  93 NE12G23   29.82F FOG
FORT MEADE*    CLOUDY    55  54  94 NE12G21   29.86F

$$

MDZ012-015-019>023-251700-
MARYLAND EASTERN SHORE

CITY           SKY/WX    TMP DP  RH WIND       PRES   REMARKS
OCEAN CITY     HVY RAIN  57  56  96 E20G28    29.76F VSB 1/2
SALISBURY      LGT RAIN  61  60  97 E16G23    29.75S FOG
BAY BRIDGE AP* DRIZZLE   57  55  94 NE10G21   29.82F FOG
CAMBRIDGE*     PTSUNNY   59  57  94 NE12G20   29.77F FOG
EASTON*        LGT RAIN  59  57  94 NE17G25   29.83F FOG

$$

MDZ017>025-251700-
SOUTHERN MARYLAND

CITY           SKY/WX    TMP DP  RH WIND       PRES   REMARKS
PATUXENT RIVER CLOUDY    60  60 100 NE18G31   29.74F FOG
ST INIGOES     LGT RAIN  60  59  96 NE14G29   29.73R FOG
LEONARDTOWN*   CLOUDY    59  55  88 NE7       29.76F

$$

MDZ003>005-251700-
NORTH CENTRAL MARYLAND

CITY           SKY/WX    TMP DP  RH WIND       PRES   REMARKS
FREDERICK*     RAIN      57  57 100 NE16      29.90F
HAGERSTOWN APT LGT RAIN  56  53  90 NE14      29.90F
WESTMINSTER*   CLOUDY    55  54  94 NE15      29.89F

$$

MDZ501>502-251700-
WESTERN MARYLAND

CITY           SKY/WX    TMP DP  RH WIND       PRES   REMARKS
OAKLAND*       FOG       46  46 100 E15G26    29.87F VSB 1/4
CUMBERLAND*    CLOUDY    55  52  88 N5        29.94F

$$

VAZ025>031-251700-
SHENANDOAH VALLEY

CITY           SKY/WX    TMP DP  RH WIND       PRES   REMARKS
WINCHESTER*    LGT RAIN  52  50  93 N9        29.86F
FRONT ROYAL*   CLOUDY    52  52 100 NE3       29.85F
LURAY*         RAIN      52  52 100 N14       29.84F
NEW MARKET*    CLOUDY    51  50  95 N12G20    29.85F
STAUNTON*      DRIZZLE   51  50  96 N15G21    29.83F
WAYNESBORO*    CLOUDY    50  50 100 N12G21    29.80F

$$

WVZ021-048>050-054>055-251700-
EASTERN WEST VIRGINIA PANHANDLE

CITY           SKY/WX    TMP DP  RH WIND       PRES   REMARKS
MARTINSBURG    LGT RAIN  54  52  93 N12       29.88F FOG
PETERSBURG*    CLOUDY    53  50  92 N6        29.91F

$$

VAZ036>039-050-251700-
CENTRAL FOOTHILLS

CITY           SKY/WX    TMP DP  RH WIND       PRES   REMARKS
CHARLOTTESVILL RAIN      58  55  90 NE16G25   29.75F FOG
CULPEPER*      RAIN      58  57  97 N12G18    29.79F
ORANGE*        RAIN      54  54 100 N15G24    29.76F
GORDONSVILLE*  CLOUDY    56  55  97 N10G20    29.75F
WARRENTON*     RAIN      58  55  88 N10       29.79F

$$

VAZ055>057-251700-
NORTH AND CENTRAL PIEDMONT

CITY           SKY/WX    TMP DP  RH WIND       PRES   REMARKS
FREDERICKSBRG* LGT RAIN  59  59 100 NE9G20    29.74F
STAFFORD*      RAIN      57  57 100 NE14      29.80F

$$

NCZ024-NYZ072-PAZ021-071-VAZ022-071-251700-
OTHER REGIONAL OBSERVATIONS

CITY           SKY/WX    TMP DP  RH WIND       PRES   REMARKS
NEW YORK CITY  CLOUDY    53  51  93 E18G28    30.09F
PHILADELPHIA   LGT RAIN  56  53  90 NE14G24   29.96F FOG
PITTSBURGH     CLOUDY    56  52  86 E12G17    29.89F
ROANOKE        CLOUDY    59  55  87 NE12      29.76F
RICHMOND       DRZL/FOG  63  63 100 NE17G25   29.66S VSB 1
RALEIGH        PTSUNNY   65  59  81 CALM      29.65R

$$

ANZ530>537-251700-
MARINE OBSERVATIONS

STATION/POSITION TIME  TEMP    WIND        PRES
                       AIR SEA DIR/SP/G
                 (UTC) (F)     (DEG/KT/KT) (MB)
THOMAS PT LIGHT  1600   57 56   40/ 22/ 24   N/A
BALT KEY BRIDGE  1542   57      50/ 19/ 24 1010.8F
COVE POINT       1542   59      70/ 25/ 32 1007.9F
LEWISETTA        1542   60 60   70/ 21/ 29 1005.9R
SOLOMONS ISLAND  1542   60 60   50/ 16/ 21   N/A
PINEY POINT      1548           80/ 14/ 17   N/A

$$





USA.gov is the U.S. government's official web portal to all federal, state and local government web resources and services.